DLH2KL EDDS-EDDL

Flight info

Callsign DLH2KL
Flight time 0h 39m
Altitude 22000
Route TAGIK2H TAGIK Z3 ABUMO N850 GISEM Z505 ARPEG Z850 ADEMI T854 DOMUX DOMUX1A
Aircraft A20N/M-SDE2E3FGHIRWXY/LB1

Departure

Time 2026-05-04 16:44
Airport Stuttgart Airport (EDDS)

Arrival

Time 2026-05-04 17:24
Airport Düsseldorf Airport (EDDL)
Time Latitude Longitude Altitude Speed Heading
2026-05-04 16:21 48.68874 9.19288 1295 ft 0 kts 343°
2026-05-04 16:37 48.68860 9.19294 1295 ft 2 kts 343°
2026-05-04 16:38 48.68833 9.19306 1295 ft 2 kts 345°
2026-05-04 16:39 48.68790 9.19299 1295 ft 2 kts 71°
2026-05-04 16:39 48.68788 9.19290 1295 ft 0 kts 74°
2026-05-04 16:41 48.68853 9.19623 1295 ft 21 kts 74°
2026-05-04 16:42 48.68718 9.19973 1291 ft 15 kts 164°
2026-05-04 16:43 48.68680 9.19989 1290 ft 0 kts 163°
2026-05-04 16:43 48.68636 9.20009 1289 ft 9 kts 164°
2026-05-04 16:43 48.68592 9.20110 1286 ft 17 kts 78°
2026-05-04 16:44 48.69437 9.24796 1894 ft 170 kts 72°
2026-05-04 16:45 48.69926 9.28341 3079 ft 177 kts 74°
2026-05-04 16:46 48.71241 9.34336 4385 ft 228 kts 69°
2026-05-04 16:46 48.72367 9.39428 5397 ft 280 kts 72°
2026-05-04 16:47 48.74873 9.43984 7159 ft 295 kts 24°
2026-05-04 16:47 48.78846 9.44130 9153 ft 299 kts 335°
2026-05-04 16:48 48.84472 9.39051 11143 ft 343 kts 330°
2026-05-04 16:48 48.86654 9.37389 11832 ft 354 kts 332°
2026-05-04 16:49 48.90683 9.33220 13639 ft 353 kts 304°
2026-05-04 16:49 48.92282 9.26324 15237 ft 350 kts 276°
2026-05-04 16:50 48.92987 9.18931 16822 ft 357 kts 275°
2026-05-04 16:50 48.93737 9.11436 18362 ft 364 kts 276°
2026-05-04 16:51 48.94566 9.03773 19651 ft 373 kts 280°
2026-05-04 16:51 48.95489 9.00047 20283 ft 382 kts 296°
2026-05-04 16:51 48.99337 8.94329 21532 ft 403 kts 329°
2026-05-04 16:52 49.04899 8.92517 22838 ft 422 kts
2026-05-04 16:52 49.07844 8.92908 23457 ft 427 kts
2026-05-04 16:53 49.13793 8.94051 24482 ft 434 kts
2026-05-04 16:53 49.22878 8.95448 24972 ft 438 kts
2026-05-04 16:54 49.25911 8.95871 24973 ft 438 kts
2026-05-04 16:55 49.38031 8.97562 24972 ft 438 kts
2026-05-04 16:55 49.44105 8.98414 24975 ft 441 kts
2026-05-04 16:56 49.50441 8.99301 24976 ft 471 kts
2026-05-04 16:56 49.60265 9.00664 24986 ft 472 kts
2026-05-04 16:57 49.63545 9.01118 24986 ft 472 kts
2026-05-04 16:57 49.70054 9.02051 24989 ft 472 kts
2026-05-04 16:58 49.79554 9.03425 24995 ft 472 kts
2026-05-04 16:58 49.82821 9.03897 24992 ft 472 kts
2026-05-04 16:59 49.87701 9.04600 24989 ft 472 kts
2026-05-04 17:00 49.99870 9.00811 24978 ft 462 kts 336°
2026-05-04 17:00 50.08903 8.95472 24975 ft 463 kts 336°
2026-05-04 17:01 50.15023 8.92315 25009 ft 462 kts 345°
2026-05-04 17:01 50.21257 8.90875 24572 ft 440 kts 349°
2026-05-04 17:02 50.27202 8.89608 24109 ft 429 kts 349°
2026-05-04 17:02 50.33102 8.88357 23651 ft 429 kts 349°
2026-05-04 17:03 50.36057 8.87739 23395 ft 427 kts 349°
2026-05-04 17:03 50.39000 8.87123 23121 ft 426 kts 349°
2026-05-04 17:03 50.44851 8.85897 22576 ft 423 kts 349°
2026-05-04 17:04 50.50656 8.84675 22065 ft 419 kts 349°
2026-05-04 17:04 50.56424 8.83457 21976 ft 419 kts 349°
2026-05-04 17:05 50.62139 8.81893 21978 ft 415 kts 338°
2026-05-04 17:05 50.67008 8.77353 21977 ft 405 kts 315°
2026-05-04 17:06 50.71303 8.71597 21975 ft 405 kts 316°
2026-05-04 17:06 50.73450 8.68729 21975 ft 405 kts 316°
2026-05-04 17:07 50.77754 8.62963 21978 ft 406 kts 315°
2026-05-04 17:07 50.79180 8.61049 21977 ft 406 kts 315°
2026-05-04 17:07 50.82054 8.57183 21983 ft 405 kts 315°
2026-05-04 17:07 50.84032 8.54053 21987 ft 399 kts 303°
2026-05-04 17:08 50.85574 8.50419 21987 ft 397 kts 297°
2026-05-04 17:08 50.88424 8.42928 21996 ft 397 kts 297°
2026-05-04 17:08 50.89864 8.39212 21996 ft 397 kts 297°
2026-05-04 17:09 50.91334 8.35492 22000 ft 398 kts 298°
2026-05-04 17:09 50.92811 8.31795 21925 ft 397 kts 298°
2026-05-04 17:09 50.94267 8.28166 21676 ft 395 kts 298°
2026-05-04 17:10 50.97201 8.20850 21163 ft 391 kts 298°
2026-05-04 17:10 51.01545 8.09970 20419 ft 386 kts 298°
2026-05-04 17:11 51.02978 8.06371 20123 ft 383 kts 298°
2026-05-04 17:11 51.04395 8.02805 19654 ft 380 kts 298°
2026-05-04 17:11 51.07178 7.95793 18555 ft 374 kts 298°
2026-05-04 17:12 51.08559 7.92307 17979 ft 371 kts 298°
2026-05-04 17:12 51.11283 7.85413 16789 ft 365 kts 297°
2026-05-04 17:13 51.15277 7.75273 15125 ft 356 kts 297°
2026-05-04 17:14 51.19167 7.65351 13515 ft 348 kts 297°
2026-05-04 17:14 51.20440 7.62099 12981 ft 344 kts 297°
2026-05-04 17:14 51.22952 7.55666 11917 ft 338 kts 298°
2026-05-04 17:15 51.24189 7.52494 11362 ft 335 kts 297°
2026-05-04 17:15 51.26620 7.46248 10363 ft 328 kts 297°
2026-05-04 17:16 51.28915 7.40351 10088 ft 300 kts 297°
2026-05-04 17:16 51.32107 7.32093 8972 ft 289 kts 297°
2026-05-04 17:17 51.33158 7.29364 8540 ft 287 kts 297°
2026-05-04 17:17 51.36204 7.21481 7751 ft 257 kts 297°
2026-05-04 17:18 51.37054 7.19285 7589 ft 242 kts 297°
2026-05-04 17:18 51.38781 7.14783 6781 ft 235 kts 296°
2026-05-04 17:19 51.40475 7.10346 5815 ft 234 kts 296°
2026-05-04 17:19 51.41858 7.05781 4837 ft 223 kts 265°
2026-05-04 17:20 51.40489 7.01611 3944 ft 214 kts 230°
2026-05-04 17:20 51.38661 6.97872 3235 ft 212 kts 231°
2026-05-04 17:20 51.37768 6.95980 2943 ft 214 kts 231°
2026-05-04 17:21 51.35938 6.92091 2331 ft 219 kts 231°
2026-05-04 17:21 51.34200 6.88398 1775 ft 199 kts 231°
2026-05-04 17:22 51.33382 6.86663 1514 ft 192 kts 231°
2026-05-04 17:22 51.32846 6.85525 1329 ft 187 kts 232°
2026-05-04 17:23 51.30788 6.81160 628 ft 135 kts 231°
2026-05-04 17:23 51.30241 6.80008 460 ft 131 kts 232°
2026-05-04 17:23 51.29113 6.77621 134 ft 115 kts 232°
2026-05-04 17:24 51.28805 6.76979 134 ft 46 kts 231°
2026-05-04 17:24 51.28542 6.76724 136 ft 0 kts 140°
2026-05-04 17:26 51.28540 6.76727 136 ft 3 kts 140°
2026-05-04 17:26 51.28442 6.76781 137 ft 0 kts 157°
2026-05-04 17:27 51.28353 6.76821 137 ft 3 kts 213°
2026-05-04 17:27 51.28343 6.76646 136 ft 4 kts 226°
2026-05-04 17:28 51.28336 6.76634 137 ft 7 kts 227°
2026-05-04 17:29 51.28109 6.76439 137 ft 7 kts 139°
2026-05-04 17:29 51.28107 6.76548 137 ft 0 kts 91°